Regional Weather Roundup
Issued by NWS Albany, NY

Home | Current Version | Previous Version | Graphics & Text | Print | Product List | Glossary Off
Versions: 1 2 3 4 5 6 7 8 9 10 11 12 13 14 15 16 17 18 19 20 21 22 23 24 25 26 27

000
ASUS41 KALY 272110
RWRALY

NEW YORK STATE HOURLY WEATHER ROUNDUP
NATIONAL WEATHER SERVICE ALBANY NY
500 PM EDT THU APR 27 2017

NOTE: "FAIR" INDICATES FEW OR NO CLOUDS BELOW 12,000 FEET WITH NO
SIGNIFICANT WEATHER AND/OR NO OBSTRUCTIONS TO VISIBILITY.

NYZ032-033-038>043-046>054-057>066-NYZ062>081-082-084-272200-
EAST


CITY           SKY/WX    TMP DP  RH WIND       PRES   REMARKS
ALBANY         CLOUDY    73  57  57 S15       29.80F
GLENS FALLS    MOSUNNY   75  58  55 S6        29.77F
POUGHKEEPSIE   CLOUDY    68  58  70 SE10      29.82F
NEWBURGH       CLOUDY    66  61  82 SE12      29.85F
MONTGOMERY     CLOUDY    69  59  70 SE9       29.82F
WHITE PLAINS   CLOUDY    64  57  78 SE12      29.87F
ISLIP          CLOUDY    62  57  83 S12       29.90S
NEW YORK CITY  CLOUDY    67  57  70 SE17      29.87S
CENTRAL PARK   CLOUDY    65  58  78 S8G17     29.89F
$$

NYZ005>009-017-018-044>046-055-056-272200-
CENTRAL


CITY           SKY/WX    TMP DP  RH WIND       PRES   REMARKS
FULTON         MOSUNNY   83  58  42 SE12G22   29.62F
SYRACUSE       CLOUDY    80  59  48 SE14G23   29.63F
ROME           MOSUNNY   78  60  53 SE16G24   29.70F
ELMIRA         CLOUDY    76  56  49 S14G23    29.67F
BINGHAMTON     SUNNY     75  56  51 S14G20    29.74F
MONTICELLO     CLOUDY    66  59  77 SE9       29.85R
$$

NYZ026>034-041>043-087-272200-
NORTH


CITY           SKY/WX    TMP DP  RH WIND       PRES   REMARKS
WATERTOWN      CLOUDY    85  56  37 S12G21    29.61F
FORT DRUM      NOT AVBL
OGDENSBURG     FAIR      85  60  42 NE12      29.63F
MASSENA        SUNNY     81  58  45 NE17      29.66F
SARANAC LAKE   SUNNY     79  53  40 S9        29.73F
PLATTSBURGH    SUNNY     75  56  51 SE16      29.74F
$$

NYZ001>004-010>016-019>021-085-272200-
WEST


CITY           SKY/WX    TMP DP  RH WIND       PRES   REMARKS
NIAGARA FALLS  CLOUDY    81  60  48 NE8       29.52F
BUFFALO        PTSUNNY   83  54  36 S15       29.54F
DUNKIRK        CLOUDY    76  59  55 N7        29.54F
JAMESTOWN      CLOUDY    81  46  30 S22G32    29.61S
WELLSVILLE     PTSUNNY   76  53  44 S13G22    29.70S
ROCHESTER      PTSUNNY   82  56  40 S13       29.57F
PENN YAN       PTSUNNY   80  54  40 S15G22    29.65F
$$

             KEY
       WCI = WIND CHILL INDEX
       VSB = VISIBILITY
       HX  = HEAT INDEX
$$




USA.gov is the U.S. government's official web portal to all federal, state and local government web resources and services.